Вернуться в каталог

FENGYUN 1C DEB

АктивенPO
NORAD 29853·DEBRIS·🇨🇳 China

Запущен May 10, 1999 с Taiyuan Satellite Launch Center

Loading…

Ближайшие Пролёты (ближайшие 24 часа)

TLE

СвежийSource: Space-Track

Эпоха: Sep 14, 2026, 05:50 UTC

1 29853U 99025EX  26257.24369596  .00000886  00000-0  62240-3 0  9997
2 29853  98.4726   1.0562 0159682 176.0887 184.1566 13.94562284995083

Отслеживайте FENGYUN 1C DEB в реальном времени с AllMySat

Download on the App Store